Home > Weather > Aurich > Past weeks

Flag for Germany Weather for the Past 2 Weeks in Aurich, Lower Saxony, Germany

Now
55 °F

Scattered clouds.


Feels Like: 53 °F
Forecast: 43 / 61 °F
Wind: 8 mph from North

Location: Wittmundhaven

Current Time: May 4, 2016 at 4:05:46 PM

Latest Report: May 4, 2016 at 3:20 PM


Visibility: N/A

Pressure: 30.39 "Hg

Humidity: 63%

Dew Point: 43 °F

Location of AurichLocation

Historic Weather in Aurich — Graph

°F

Aurich Temperature Yesterday

Maximum temperature yesterday: 54 °F (at 2:20 PM)
Minimum temperature yesterday: 45 °F (at 10:20 PM)
Average temperature yesterday: 50 °F

High & Low Weather Summary for the Past Weeks

 TemperatureHumidityPressure
High64 °F (May 2, 2:20 PM)100% (Apr 21, 4:20 AM)30.48 "Hg (Apr 21, 4:20 AM)
Low30 °F (Apr 21, 5:20 AM)41% (Apr 21, 4:20 PM)29.33 "Hg (Apr 26, 4:20 PM)
Average43 °F78%30.00 "Hg
* Reported Apr 19 2:20 PM — May 4 2:20 PM, Aurich, Weather by CustomWeather, © 2016

Note: Actual official high and low records may vary slightly from our data, if they occured in-between our weather recording intervals... More about our weather records

Advertising

Aurich Weather History for the Previous 24 Hours

Scroll right to see more
 ConditionsComfort  
Time TempWeatherWind HumidityBarometerVisibility
2:20 PM
Wed, May 4
55 °FScattered clouds.10 mph55%30.39 "HgN/A
1:20 PM55 °FScattered clouds.7 mph55%30.39 "HgN/A
12:20 PM55 °FScattered clouds.6 mph55%30.39 "HgN/A
11:20 AM54 °FScattered clouds.7 mph54%30.39 "HgN/A
10:20 AM52 °FPassing clouds.6 mph62%30.39 "HgN/A
9:20 AM50 °FPassing clouds.7 mph76%30.39 "HgN/A
8:20 AM48 °FPassing clouds.3 mph82%30.39 "HgN/A
7:20 AM39 °FFog.No wind93%30.39 "HgN/A
6:20 AM37 °FFog.3 mph100%30.36 "HgN/A
5:20 AM36 °FFog.No wind100%30.36 "HgN/A
4:20 AM37 °FFog.No wind93%30.36 "HgN/A
3:20 AM37 °FFog.3 mph100%30.33 "HgN/A
2:20 AM39 °FChilly.2 mph93%30.33 "HgN/A
1:20 AM41 °FQuite cool.3 mph87%30.33 "HgN/A
12:20 AM43 °FQuite cool.6 mph87%30.33 "HgN/A
11:20 PM
Tue, May 3
45 °FPassing clouds.5 mph81%30.30 "HgN/A
10:20 PM45 °FPassing clouds.5 mph81%30.30 "HgN/A
9:20 PM46 °FPassing clouds.6 mph82%30.30 "HgN/A
8:20 PM48 °FPassing clouds.10 mph76%30.27 "HgN/A
7:20 PM50 °FPassing clouds.14 mph71%30.24 "HgN/A
6:20 PM52 °FPassing clouds.15 mph62%30.24 "HgN/A
5:20 PM52 °FScattered clouds.17 mph62%30.21 "HgN/A
4:20 PM52 °FScattered clouds.14 mph67%30.21 "HgN/A
Weather by CustomWeather, © 2016

See weather overviewHow to use our weather pages